Hourly Data Report for March 31, 2006

TORONTO CITY
ONTARIO

43°40'00.000" N
79°24'00.000" W
112.50 m
6158355
71508
XTO

Download Data

Hourly Data (March 2006)
Hourly Data Report for March 31, 2006
TIME
LST
Temp Definition
°C
Dew Point Definition
°C
Rel Hum Definition
%
Precip. Amount Definition
mm

Wind Dir Definition
10's deg

Wind Spd Definition
km/h
Visibility Definition
km
Stn Press Definition
kPa
Hmdx Definition


Wind Chill Definition


Weather Definition


00:00 9.5 2.4 61   LegendMM LegendMM   100.59     LegendNANA
01:00 9.0 2.2 62   LegendMM LegendMM   100.52     LegendNANA
02:00 8.6 2.1 64   LegendMM LegendMM   100.47     LegendNANA
03:00 7.8 1.9 66   LegendMM LegendMM   100.39     LegendNANA
04:00 7.0 1.6 68   LegendMM LegendMM   100.34     LegendNANA
05:00 6.8 1.5 69   LegendMM LegendMM   100.33     LegendNANA
06:00 6.5 1.5 70   LegendMM LegendMM   100.23     LegendNANA
07:00 7.0 2.0 70   LegendMM LegendMM   100.22     LegendNANA
08:00 8.9 2.6 65   LegendMM LegendMM   100.15     LegendNANA
09:00 12.4 4.3 58   LegendMM LegendMM   100.11     LegendNANA
10:00 13.5 2.8 48   LegendMM LegendMM   100.06     LegendNANA
11:00 14.5 3.2 47   LegendMM LegendMM   99.98     LegendNANA
12:00 15.5 3.8 46   LegendMM LegendMM   99.86     LegendNANA
13:00 15.6 3.9 46   LegendMM LegendMM   99.78     LegendNANA
14:00 14.7 3.8 48   LegendMM LegendMM   99.67     LegendNANA
15:00 15.4 5.3 51   LegendMM LegendMM   99.55     LegendNANA
16:00 14.4 9.6 73   LegendMM LegendMM   99.58     LegendNANA
17:00 13.2 11.5 89   LegendMM LegendMM   99.60     LegendNANA
18:00 13.3 12.6 96   LegendMM LegendMM   99.55     LegendNANA
19:00 13.3 12.5 95   LegendMM LegendMM   99.48     LegendNANA
20:00 12.7 10.9 89   LegendMM LegendMM   99.41     LegendNANA
21:00 12.2 10.3 88   LegendMM LegendMM   99.31     LegendNANA
22:00 12.4 10.1 86   LegendMM LegendMM   99.25     LegendNANA
23:00 11.8 9.4 85   LegendMM LegendMM   99.24     LegendNANA

Notes on Data Quality.

Legend

  • E = Estimated
  • M = Missing
  • NA = Not Available*
  • [empty] = Indicates an unobserved value
Date modified: